Langley AFB, VA

3:28 PM EDT on September 22, 2017 (GMT -0400)
Langley Air Force Base

Weather History for KLFI - October, 2012

Change the Weather History Date:

Monday, October 8, 2012

  Actual Average Record
Temperature  
Mean Temperature 54 °F -  
Max Temperature 58 °F 71 °F 91 °F (1941)
Min Temperature 51 °F 55 °F 37 °F (1935)
Degree Days  
Heating Degree Days 10    
Growing Degree Days 4 (Base 50)    
Moisture  
Dew Point 50 °F    
Average Humidity 84    
Maximum Humidity 94    
Minimum Humidity 59    
Precipitation  
Precipitation 0.92 in - - ()
Sea Level Pressure  
Sea Level Pressure 30.18 in    
Wind  
Wind Speed 15 mph (NNE)    
Max Wind Speed 25 mph    
Max Gust Speed 29 mph    
Visibility 5 miles    
Events Fog , Rain    
Averages and records for this station are not official NWS values.
T = Trace of Precipitation, MM = Missing Value Source: NWS Daily Summary

Daily Weather History Graph

Daily Weather History Graph

Search for Another Location

Airport or City:

Trip Planner

Search our weather history database for the weather conditions in past years. The results will help you decide how hot, cold, wet, or windy it might be!

Date:

Astronomy

Oct. 08, 2012 Rise Set
Actual Time 7:07 AM EDT 6:37 PM EDT
Civil Twilight 6:41 AM EDT 7:03 PM EDT
Nautical Twilight 6:11 AM EDT 7:33 PM EDT
Astronomical Twilight 5:40 AM EDT 8:03 PM EDT
Moon No Moon Rise 2:17 PM EDT (10/8)
Length of Visible Light 12h 22m
Length of Day
11h 30m
Waning Gibbous, 46% of the Moon is Illuminated
Oct 8
Waning Gibbous
Oct 15
New
Oct 21
First Quarter
Oct 29
Full
Nov 6
Last Quarter

Hourly Weather History & Observations

Time (EDT) Temp. Dew Point Humidity Pressure Visibility Wind Dir Wind Speed Gust Speed Precip Events Conditions
12:03 AM 53.6 °F 50.0 °F 88% 30.15 in 10.0 mi NNW 9.2 mph - N/A   Overcast
12:31 AM 53.6 °F 48.2 °F 82% 30.15 in 10.0 mi NNW 9.2 mph - N/A   Overcast
12:55 AM 53.1 °F 48.4 °F 84% 30.15 in 10.0 mi NNW 11.5 mph - N/A   Overcast
1:55 AM 52.5 °F 46.6 °F 80% 30.16 in 10.0 mi NNW 15.0 mph - N/A   Overcast
2:55 AM 52.2 °F 45.3 °F 78% 30.17 in 10.0 mi NNW 10.4 mph 20.7 mph N/A   Overcast
3:55 AM 52.0 °F 45.1 °F 77% 30.17 in 10.0 mi NNW 12.7 mph - N/A   Overcast
3:56 AM 51.8 °F 44.6 °F 76% 30.17 in 10.0 mi NNW 10.4 mph - N/A   Overcast
4:00 AM 51.8 °F 44.6 °F 76% 30.17 in 10.0 mi North 12.7 mph - N/A   Overcast
4:08 AM 51.8 °F 44.6 °F 76% 30.16 in 10.0 mi North 13.8 mph - N/A   Overcast
4:11 AM 51.8 °F 44.6 °F 76% 30.17 in 10.0 mi North 10.4 mph 20.7 mph N/A   Overcast
4:55 AM 52.7 °F 44.8 °F 74% 30.18 in 10.0 mi North 13.8 mph - N/A   Overcast
5:55 AM 52.2 °F 42.8 °F 70% 30.19 in 10.0 mi North 17.3 mph 23.0 mph N/A   Overcast
5:59 AM 51.8 °F 42.8 °F 71% 30.19 in 10.0 mi North 13.8 mph 23.0 mph N/A   Overcast
6:41 AM 51.8 °F 42.8 °F 71% 30.22 in 10.0 mi North 13.8 mph - N/A   Overcast
6:47 AM 51.8 °F 42.8 °F 71% 30.21 in 10.0 mi North 15.0 mph - N/A   Overcast
6:55 AM 52.0 °F 42.6 °F 70% 30.22 in 10.0 mi North 13.8 mph - N/A   Overcast
6:56 AM 51.8 °F 42.8 °F 71% 30.21 in 10.0 mi North 16.1 mph - N/A   Overcast
7:13 AM 51.8 °F 41.0 °F 67% 30.22 in 10.0 mi North 16.1 mph - N/A   Overcast
7:29 AM 51.8 °F 41.0 °F 67% 30.22 in 10.0 mi North 12.7 mph - N/A   Overcast
7:55 AM 52.9 °F 42.4 °F 68% 30.23 in 10.0 mi North 12.7 mph - N/A   Overcast
8:55 AM 54.7 °F 45.1 °F 70% 30.25 in 10.0 mi NE 16.1 mph - N/A   Overcast
9:14 AM 55.4 °F 44.6 °F 67% 30.24 in 10.0 mi NE 18.4 mph - N/A   Overcast
9:23 AM 55.4 °F 44.6 °F 67% 30.23 in 10.0 mi NNE 17.3 mph - N/A   Overcast
9:55 AM 55.6 °F 42.6 °F 62% 30.26 in 10.0 mi NNE 15.0 mph - N/A   Overcast
10:55 AM 57.2 °F 43.5 °F 60% 30.24 in 10.0 mi ENE 15.0 mph - N/A   Overcast
11:30 AM 57.2 °F 44.6 °F 63% 30.26 in 10.0 mi NE 11.5 mph - N/A   Overcast
11:55 AM 57.2 °F 42.8 °F 59% 30.25 in 10.0 mi NE 13.8 mph - N/A   Overcast
12:23 PM 55.4 °F 44.6 °F 67% 30.25 in 10.0 mi NE 12.7 mph - N/A Rain Light Rain
12:47 PM 55.4 °F 46.4 °F 72% 30.23 in 2.0 mi NE 12.7 mph - N/A Rain Rain
12:55 PM 55.0 °F 47.1 °F 75% 30.23 in 2.0 mi NE 13.8 mph - 0.02 in Rain Light Rain
12:56 PM 55.4 °F 48.2 °F 77% 30.23 in 3.0 mi NE 12.7 mph - N/A Rain Light Rain
1:12 PM 55.4 °F 48.2 °F 77% 30.22 in 10.0 mi North 9.2 mph - N/A   Overcast
1:19 PM 55.4 °F 48.2 °F 77% 30.22 in 10.0 mi NNE 9.2 mph - N/A Rain Light Rain
1:55 PM 54.3 °F 48.7 °F 81% 30.21 in 8.0 mi NNE 10.4 mph - 0.02 in Rain Light Rain
2:19 PM 53.6 °F 50.0 °F 88% 30.17 in 2.5 mi NNE 15.0 mph - N/A Rain Light Rain
2:22 PM 53.6 °F 50.0 °F 88% 30.17 in 2.0 mi NNE 16.1 mph - N/A Rain Light Rain
2:26 PM 53.6 °F 50.0 °F 88% 30.18 in 2.5 mi NNE 17.3 mph - N/A Rain Light Rain
2:30 PM 53.6 °F 50.0 °F 88% 30.19 in 3.0 mi North 12.7 mph - N/A Rain Light Rain
2:36 PM 55.4 °F 50.0 °F 82% 30.18 in 4.0 mi NNE 12.7 mph - N/A Rain Light Rain
2:55 PM 54.9 °F 51.3 °F 88% 30.17 in 9.0 mi North 12.7 mph - 0.06 in Rain Light Rain
3:03 PM 55.4 °F 51.8 °F 88% 30.18 in 10.0 mi NNE 11.5 mph - N/A Rain Light Rain
3:06 PM 55.4 °F 51.8 °F 88% 30.18 in 10.0 mi NNE 13.8 mph - N/A Rain Light Rain
3:20 PM 55.4 °F 51.8 °F 88% 30.18 in 2.5 mi NNE 11.5 mph - N/A Rain Rain
3:23 PM 55.4 °F 51.8 °F 88% 30.19 in 2.0 mi North 11.5 mph - N/A Rain Rain
3:25 PM 55.4 °F 51.8 °F 88% 30.19 in 2.0 mi North 12.7 mph - N/A Rain Heavy Rain
3:28 PM 55.4 °F 51.8 °F 88% 30.20 in 2.5 mi North 12.7 mph - N/A Rain Heavy Rain
3:30 PM 55.4 °F 51.8 °F 88% 30.21 in 2.0 mi North 12.7 mph - N/A Rain Heavy Rain
3:36 PM 55.4 °F 51.8 °F 88% 30.19 in 1.2 mi North 11.5 mph - N/A Rain Heavy Rain
3:40 PM 55.4 °F 51.8 °F 88% 30.17 in 1.0 mi North 16.1 mph 21.9 mph N/A Rain Heavy Rain
3:46 PM 55.4 °F 51.8 °F 88% 30.17 in 1.2 mi North 13.8 mph 21.9 mph N/A Rain Heavy Rain
3:55 PM 54.9 °F 52.0 °F 90% 30.17 in 1.2 mi North 16.1 mph - 0.18 in Rain Heavy Rain
3:59 PM 53.6 °F 51.8 °F 94% 30.17 in 2.0 mi North 12.7 mph - N/A Rain Rain
4:04 PM 53.6 °F 51.8 °F 94% 30.18 in 3.0 mi North 15.0 mph - N/A Rain Light Rain
4:26 PM 55.4 °F 51.8 °F 88% 30.17 in 0.8 mi NNE 11.5 mph - N/A Rain Heavy Rain
4:29 PM 55.4 °F 51.8 °F 88% 30.17 in 0.8 mi NNE 16.1 mph - N/A Rain Heavy Rain
4:32 PM 55.4 °F 51.8 °F 88% 30.17 in 0.5 mi NE 19.6 mph - N/A Fog , Rain Light Rain
4:33 PM 55.4 °F 51.8 °F 88% 30.17 in 0.5 mi NNE 18.4 mph - N/A Fog , Rain Light Rain
4:42 PM 55.4 °F 53.6 °F 94% 30.16 in 1.0 mi NNE 20.7 mph - N/A Rain Rain
4:43 PM 55.4 °F 53.6 °F 94% 30.15 in 1.0 mi NNE 20.7 mph - N/A Rain Rain
4:46 PM 55.4 °F 53.6 °F 94% 30.15 in 1.2 mi NNE 19.6 mph - N/A Rain Rain
4:55 PM 55.0 °F 52.9 °F 92% 30.16 in 1.2 mi NNE 19.6 mph - 0.23 in Rain Light Rain
4:58 PM 55.4 °F 53.6 °F 94% 30.17 in 2.0 mi NNE 18.4 mph - N/A Rain Light Rain
5:00 PM 55.4 °F 53.6 °F 94% 30.17 in 2.0 mi NNE 20.7 mph - N/A Rain Light Rain
5:04 PM 55.4 °F 53.6 °F 94% 30.17 in 2.0 mi NNE 18.4 mph - N/A Rain Rain
5:05 PM 55.4 °F 53.6 °F 94% 30.17 in 2.0 mi NNE 18.4 mph - N/A Rain Rain
5:09 PM 55.4 °F 53.6 °F 94% 30.18 in 1.8 mi NNE 20.7 mph - N/A Rain Rain
5:14 PM 55.4 °F 53.6 °F 94% 30.18 in 1.5 mi NE 16.1 mph - N/A Rain Rain
5:18 PM 55.4 °F 53.6 °F 94% 30.17 in 1.5 mi NE 21.9 mph - N/A Rain Rain
5:30 PM 55.4 °F 51.8 °F 88% 30.17 in 1.5 mi NE 21.9 mph - N/A Rain Rain
5:38 PM 55.4 °F 51.8 °F 88% 30.16 in 1.8 mi NE 20.7 mph - N/A Rain Light Rain
5:44 PM 55.4 °F 51.8 °F 88% 30.16 in 1.8 mi NNE 21.9 mph - N/A Rain Light Rain
5:48 PM 55.4 °F 51.8 °F 88% 30.15 in 1.5 mi NE 21.9 mph - N/A Rain Rain
5:55 PM 55.4 °F 52.2 °F 89% 30.14 in 1.5 mi NE 23.0 mph - 0.15 in Rain Rain
5:57 PM 55.4 °F 51.8 °F 88% 30.15 in 1.5 mi NE 25.3 mph 28.8 mph N/A Rain Light Rain
5:58 PM 55.4 °F 51.8 °F 88% 30.15 in 1.5 mi NE 25.3 mph 28.8 mph N/A Rain Light Rain
6:01 PM 55.4 °F 51.8 °F 88% 30.16 in 1.8 mi NE 21.9 mph 28.8 mph N/A Rain Light Rain
6:10 PM 55.4 °F 51.8 °F 88% 30.16 in 1.8 mi NE 24.2 mph - N/A Rain Rain
6:11 PM 55.4 °F 51.8 °F 88% 30.16 in 1.5 mi NE 24.2 mph - N/A Rain Rain
6:27 PM 55.4 °F 51.8 °F 88% 30.17 in 1.5 mi NE 20.7 mph 26.5 mph N/A Rain Light Rain
6:30 PM 55.4 °F 51.8 °F 88% 30.17 in 1.8 mi NE 19.6 mph 26.5 mph N/A Rain Light Rain
6:33 PM 55.4 °F 51.8 °F 88% 30.17 in 2.0 mi NE 20.7 mph - N/A Rain Light Rain
6:39 PM 55.4 °F 51.8 °F 88% 30.16 in 2.5 mi NE 21.9 mph - N/A Rain Light Rain
6:40 PM 55.4 °F 51.8 °F 88% 30.16 in 2.0 mi NE 20.7 mph - N/A Rain Light Rain
6:47 PM 55.4 °F 51.8 °F 88% 30.17 in 2.5 mi NE 21.9 mph - N/A Rain Rain
6:48 PM 55.4 °F 51.8 °F 88% 30.17 in 2.5 mi NE 20.7 mph - N/A Rain Rain
6:55 PM 54.5 °F 51.1 °F 88% 30.17 in 2.5 mi NE 17.3 mph - 0.14 in Rain Rain
7:00 PM 53.6 °F 50.0 °F 88% 30.17 in 2.0 mi NE 19.6 mph 24.2 mph N/A Rain Rain
7:08 PM 53.6 °F 50.0 °F 88% 30.17 in 2.0 mi NNE 16.1 mph - N/A Rain Rain
7:12 PM 53.6 °F 50.0 °F 88% 30.17 in 2.5 mi NE 19.6 mph - N/A Rain Light Rain
7:16 PM 53.6 °F 50.0 °F 88% 30.17 in 2.5 mi NNE 17.3 mph - N/A Rain Light Rain
7:18 PM 53.6 °F 50.0 °F 88% 30.15 in 3.0 mi NNE 17.3 mph - N/A Rain Light Rain
7:21 PM 53.6 °F 50.0 °F 88% 30.15 in 2.5 mi NE 20.7 mph - N/A Rain Rain
7:22 PM 53.6 °F 50.0 °F 88% 30.16 in 2.5 mi NE 20.7 mph - N/A Rain Rain
7:27 PM 53.6 °F 50.0 °F 88% 30.13 in 3.0 mi NE 18.4 mph - N/A Rain Light Rain
7:40 PM 53.6 °F 50.0 °F 88% 30.15 in 4.0 mi NNE 16.1 mph - N/A Rain Light Rain
7:42 PM 53.6 °F 50.0 °F 88% 30.16 in 4.0 mi NE 16.1 mph - N/A Rain Light Rain
7:48 PM 53.6 °F 50.0 °F 88% 30.15 in 7.0 mi NE 19.6 mph - N/A Rain Light Rain
7:55 PM 54.0 °F 49.8 °F 86% 30.15 in 8.0 mi NNE 17.3 mph - 0.12 in Rain Light Rain
8:11 PM 53.6 °F 50.0 °F 88% 30.16 in 10.0 mi NNE 15.0 mph - N/A   Overcast
8:23 PM 53.6 °F 50.0 °F 88% 30.16 in 10.0 mi NNE 15.0 mph - N/A   Overcast
8:55 PM 54.7 °F 48.9 °F 81% 30.16 in 10.0 mi NNE 12.7 mph - 0.00 in   Overcast
9:55 PM 56.8 °F 51.1 °F 81% 30.14 in 10.0 mi NNE 18.4 mph - N/A   Overcast
10:24 PM 57.2 °F 51.8 °F 82% 30.14 in 10.0 mi North 16.1 mph - N/A   Overcast
10:55 PM 58.1 °F 52.7 °F 82% 30.14 in 10.0 mi NNE 15.0 mph - N/A   Overcast
11:04 PM 57.2 °F 53.6 °F 88% 30.14 in 6.0 mi NNE 15.0 mph - N/A Rain Light Rain
11:34 PM 57.2 °F 53.6 °F 88% 30.13 in 7.0 mi NNE 11.5 mph - N/A   Overcast
11:42 PM 57.2 °F 53.6 °F 88% 30.13 in 8.0 mi NNE 11.5 mph - N/A Rain Light Rain
11:55 PM 57.9 °F 54.3 °F 88% 30.13 in 6.0 mi NNE 11.5 mph - 0.00 in Rain Light Rain
11:57 PM 57.2 °F 53.6 °F 88% 30.12 in 3.0 mi NNE 13.8 mph - N/A Rain Light Rain
11:58 PM 57.2 °F 55.4 °F 94% 30.12 in 2.5 mi NNE 15.0 mph - N/A Rain Light Rain